Weather in Horšovský Týn

Czech Republic     49°31′35″N   12°56′36″E
temp.,
°C
wind,
m/s
gust,
m/s
humid.,
%
clouds,
%
prec.,
mm/h
press.,
hPa
HPBL,
m
18 may, tue
tue1823:00+9wsw6128977 0.1 1010791
02:00+8wsw71286100 0.2 1011946
05:00+8w61085100 0.1 1012989
08:00+8wsw5108997 0.2 1014781
11:00+9w5984100 0.3 1015809
14:00+10wsw588429 0.9 1014909
17:00+12w777651 0.8 10131010
20:00+9w3488100 1.2 1014101
19 may, wed
wed1923:00+6sw3396100 0.1 101666
02:00+4sw349896 0.3 101685
05:00+6sw3797100 0.1 1016278
08:00+8w479066 0.2 1016519
11:00+9w5781100 0.1 1017901
14:00+12wnw456665 0.6 10151467
17:00+13nnw456410 1.1 10151225
20:00+9wnw358484 2.5 101689
20 may, thu
thu2023:00+6wsw329218 0.9 101828
02:00+4sw349410 0.9 101950
05:00+5wsw4795100 0.6 1020432
08:00+7wsw3793100 0.9 1021701
11:00+9wsw568592 0.3 1022845
14:00+11wsw677392 0.8 10211159
17:00+11w568119 0.6 1021914
20:00+10wsw368896 1.1 1022178
21 may, fri
fri2123:00+6sw33946 0.1 102343
02:00+4sw339671 0.1 102244
05:00+4ssw2295100 0.0 102032
08:00+8s2388100 0.0 1018217
11:00+14sw4659100 0.0 1015896
14:00+13sw61166100 0.0 10151538
17:00+15ssw51165100 0.2 10111155
20:00+13sw41069100 0.2 1011265
22 may, sat
sat2223:00+10wsw3108887 0.3 1011429
02:00+9ssw2394100 0.4 100970
05:00+9sw3393100 0.1 100864
08:00+10w51193100 2.3 1008682
11:00+9wsw61291100 0.3 1009687
14:00+10wsw5981100 0.5 10091039
17:00+10sw6987100 1.3 1010669
20:00+9ssw6118998 1.8 1011449